User: anonymous   Login
Location: Ottawa
(45.4170°N, 75.7000°W)
Time: 00:08:06
(UTC-04:00)
Language:

Aureole 3 Rocket - Orbit

View from above orbital plane
View from above orbital plane
View from above satellite
View from above satellite

Ground track
Ground track

The orbit data is extracted from the following two-line orbital elements,

1 12849U 81094B   17289.87427878  .00000473  00000-0  39388-4 0  9993
2 12849  82.4917  73.3607 0903976  87.8385 282.5865 13.50243993758359
Epoch (UTC): 16 October 2017 20:58:57
Eccentricity: 0.0903976
inclination: 82.4917°
perigee height: 398 km
apogee height: 1745 km
right ascension of ascending node: 73.3607°
argument of perigee: 87.8385°
revolutions per day: 13.50243993
mean anomaly at epoch: 282.5865°
orbit number at epoch: 75835

The dashed part of the orbit path shows where the satellite is in the earth's shadow,  

DLR